Regional Weather Roundup
Issued by NWS Austin/San Antonio, TX

Current Version | Previous Version | Text Only | Print | Product List | Glossary On
Versions: 1 2 3 4 5 6 7 8 9 10 11 12 13 14 15 16 17 18 19 20 21 22 23 24 25 26 27 28 29 30 31 32 33 34 35 36 37 38 39 40 41 42 43 44 45 46 47 48 49 50
000
ASUS44 KEWX 050910
RWREWX
SOUTH TEXAS REGIONAL WEATHER ROUNDUP
NATIONAL WEATHER SERVICE AUSTIN/SAN ANTONIO TX
400 AM CDT SUN JUL 05 2020

NOTE: "FAIR" INDICATED FEW OR NO CLOUDS BELOW 12,000 FEET WITH NO
SIGNIFICANT WEATHER AND/OR OBSTRUCTIONS TO VISIBILITY.

* - THESE STATIONS ARE NOT NWS OR FAA STATIONS...AND ARE NOT SUBJECT
    TO NWS AND FAA QUALITY CONTROL.

TXZ171-172-183>190-051000-
TEXAS HILL COUNTRY AND EDWARDS PLATEAU

CITY           SKY/WX    TMP DP  RH WIND       PRES   REMARKS
JUNCTION       CLEAR     80  68  66 CALM      29.92R
*LLANO         CLEAR     75  64  69 CALM      29.91S
BURNET         CLEAR     78  67  68 CALM      29.91R
*HORSESHOE BAY CLEAR     81  70  69 S3        29.88S
*LAGO VISTA    PTCLDY    78  71  80 S5        29.89S
*KERRVILLE     CLEAR     76  71  83 CALM      29.92S
*FREDERICKSBRG CLEAR     76  68  76 SW3       29.93S
*ROCKSPRINGS   CLEAR     77  68  73 SE10      29.99S
*BOERNE        CLEAR     75  70  83 S7        29.92S
*CASTROVILLE   CLEAR     79  71  76 MISG      29.89F
HONDO          CLEAR     77  70  79 SE7       29.88F
*UVALDE          N/A     76  73  88 E5        29.90S
DEL RIO        CLEAR     84  62  47 E7        29.84S
*LAUGHLIN AFB  CLEAR     80  62  55 SE7       29.86S
*SPOFFORD      NOT AVBL
*EAGLE PASS    NOT AVBL
CARRIZO SPRGS  CLEAR     81  64  57 S8        29.84S
$$

TXZ173-191>194-202-209-217>225-228-051000-
CENTRAL AND SOUTH CENTRAL TEXAS

CITY           SKY/WX    TMP DP  RH WIND       PRES   REMARKS
GEORGETOWN     PTCLDY    80  72  76 S8        29.88S
*TAYLOR        PTCLDY    76  71  84 S7        29.86S
AUSTIN/BERGSTM PTCLDY    74  72  93 S3        29.86S
AUSTIN/MABRY   PTCLDY    77  70  79 VRB3      29.87S
*PFLUGERVILLE  PTCLDY    75  72  88 CALM      29.87S
SAN MARCOS     CLEAR     75  71  87 S6        29.88S
NEW BRAUNFELS  CLEAR     75  70  84 SW3       29.87R
*RANDOLPH AFB  CLEAR     77  71  82 SW9       29.87S
*SEGUIN        CLEAR     73  71  92 CALM      29.91R FOG
SAN ANTONIO    CLEAR     80  70  71 SW6       29.88S
STINSON FIELD  CLEAR     75  72  90 S3        29.85F
*KELLY FIELD   CLEAR     78  72  83 S6        29.86S
*PLEASANTON    CLEAR     76  74  91 S3        29.87R
*KENEDY        CLOUDY    77  75  92 S7        29.87S
*LA GRANGE     CLEAR     78  78 100 S7        29.84S
*GIDDINGS      CLEAR     78  73  85 SW5       29.87S
*GONZALES      CLOUDY    76  76 100 S5        29.86S
$$

TXZ163>164-176>182-195>201-210>213-226-227-235-051000-
SOUTHEAST TEXAS

CITY           SKY/WX    TMP DP  RH WIND       PRES   REMARKS
COLLEGE STN    CLEAR     77  73  87 S5        29.86R
*BRYAN         CLEAR     79  75  89 S3        29.87R
*CALDWELL      CLEAR     76  74  93 S6        29.86S
*CROCKETT      NOT AVBL
*BRENHAM       CLEAR     78  75  91 SW5       29.87S
HUNTSVILLE     CLEAR     79  73  82 S8        29.86S
CONROE         CLEAR     79  75  87 SW6       29.87R
HOUSTON BUSH   PTCLDY    80  75  84 SW5       29.86S
HOUSTON HOBBY  CLEAR     79  75  87 S5        29.85F
*HOUSTON SW AP CLEAR     74  74 100 CALM      29.86S FOG
PEARLAND       CLEAR     78  74  87 CALM      29.87S
HOUSTON HOOKS  CLEAR     78  73  84 W3        29.87R
ELLINGTON FLD  PTCLDY    79  75  89 S6        29.85S
SUGAR LAND       N/A     77  75  93 S6        29.85S
*HOUSTON EXEC    N/A     77  77 100 SW5       29.88R
*CLEVELAND MUN CLEAR     77  76  95 CALM      29.87S FOG
*WHARTON       CLEAR     74  73  93 S3        29.87S
*COLUMBUS      MOCLDY    75  75  98 CALM      29.87S
*EAGLE LAKE    PTCLDY    78  76  95 S5        29.86S
$$

TXZ214>216-236>238-051000-
THE UPPER TEXAS COAST

CITY           SKY/WX    TMP DP  RH WIND       PRES   REMARKS
*ORANGE        CLEAR     81  78  89 SW5       29.86S HX  90
PORT ARTHUR    CLEAR     78  77  96 SW6       29.84S
GALVESTON      CLEAR     82  77  84 SW8       29.86S HX  90
ANGLETON       CLEAR     77  74  90 S3        29.86S
*BAY CITY      PTCLDY    77  77  98 CALM      29.86S
PALACIOS       MOCLDY    83  76  79 S14       29.86R HX  91
$$

TXZ229>234-239>247-051000-
TEXAS COASTAL BEND AND RIO GRANDE PLAINS

CITY           SKY/WX    TMP DP  RH WIND       PRES   REMARKS
VICTORIA       CLEAR     78  74  87 S7        29.86S
*BEEVILLE      PTCLDY    78  78 100 S12       29.85S
ROCKPORT       CLEAR     80  75  84 S8        29.85F
*PORT ARANSAS  CLEAR     80  77  89 S10G18    29.87F
*PORT LAVACA   CLEAR     79  76  91 S6        29.86R
*INGLESIDE     PTCLDY    81  78  90 SW12      29.85F HX  90
CORPUS CHRISTI CLEAR     75  74  96 S7        29.85F
CORPUS NAS     MOCLDY    79  78  97 S13       29.85F
*ROBSTOWN      CLEAR     75  72  92 S7        29.86F
ALICE          PTCLDY    76  75  97 S9        29.85F
KINGSVILLE NAS CLEAR     77  75  93 S9        29.86F
COTULLA        CLEAR     80  73  79 S7        29.85F
LAREDO         CLEAR     79  73  82 SE14      29.85F
$$

TXZ248>255-051000-
DEEP SOUTH TEXAS

CITY           SKY/WX    TMP DP  RH WIND       PRES   REMARKS
BROWNSVILLE    CLEAR     78  76  93 S8        29.88S
PORT ISABEL    CLEAR     79  75  87 S8        29.87F
HARLINGEN      CLEAR     78  76  93 S10       29.86F
*HEBBRONVILLE  CLEAR     73  71  95 S3        29.88F
MCALLEN        CLEAR     79  75  87 S12       29.87F
*WESLACO       MOCLDY    77  74  91 S7        29.86F
FALFURRIAS     NOT AVBL
EDINBURG       CLEAR     77  74  92 S6        29.87S
*ZAPATA        CLEAR     80  75  83 SE6       29.87S
$$

TXZ213>215-236>238-242>244-246-247-251-254-255-051000-
CMAN STATIONS

STATION/POSITION TIME  TEMP    WIND        PRES    WAVE
                       AIR SEA DIR/SP/G            HT/PER
                 (UTC) (F)     (DEG/KT/KT) (MB)    (FT/S)
SABINE PASS      0830   81 88  240/  3/  5 1012.4
NORTH JETTY/GLS  0830   85 86  220/ 10/ 12 1009.8
EAGLE POINT      0830   80 88  230/  6/  9 1010.4
MORGANS POINT    0830   81 87  210/  4/  6 1010.9
PORT O`CONNOR    0830   81 88  200/ 12/ 14 1010.6
PORT ARANSAS     0900   80 82  180/ 15/ 17 1010.8
MALAQUITE BEACH  0830   81     160/ 16/ 18   N/A
BAFFIN BAY       0830   81 85  150/ 14/ 18 1011.4
PORT ISABEL      0830   80 84  170/  7/ 10 1013.6
$$



USA.gov is the U.S. government's official web portal to all federal, state and local government web resources and services.